User: anonymous   Login
Location: Unspecified
(0.0000°N, 0.0000°E)
Time: 05:23:30
(UTC+01:00)
Language:

Cosmos 1315 Rocket - Orbit

View from above orbital plane
View from above orbital plane
View from above satellite
View from above satellite

Ground track
Ground track

The orbit data is extracted from the following two-line orbital elements,

1 12904U 81103B   14298.79863239  .00005221  00000-0  38352-3 0  6137
2 12904 081.1761 296.8543 0029541 001.3906 358.7392 15.02938331347667
Epoch (UTC): 25 October 2014 19:10:01
Eccentricity: 0.0029541
inclination: 81.1761°
perigee height: 537 km
apogee height: 578 km
right ascension of ascending node: 296.8543°
argument of perigee: 1.3906°
revolutions per day: 15.02938331
mean anomaly at epoch: 358.7392°
orbit number at epoch: 34766

The dashed part of the orbit path shows where the satellite is in the earth's shadow,  

DLR